User: anonymous
Location: Pine Mountain Observatory
(43.7910°N, 120.9377°W)
Time: 03:28:20
(UTC-07:00)
Language:

IDEFIX/ARIANE 42P - Orbit

View from above orbital plane
View from above orbital plane
View from above satellite
View from above satellite

Ground track
Ground track

The orbit data is extracted from the following two-line orbital elements,

1 27422U 02021B   14112.21746890  .00000293  00000-0  13189-3 0  4677
2 27422 098.3058 157.3497 0013097 054.6612 347.5829 14.29001415622142
Epoch (UTC): 22 April 2014 05:13:09
Eccentricity: 0.0013097
inclination: 98.3058°
perigee height: 785 km
apogee height: 804 km
right ascension of ascending node: 157.3497°
argument of perigee: 54.6612°
revolutions per day: 14.29001415
mean anomaly at epoch: 347.5829°
orbit number at epoch: 62214

The dashed part of the orbit path shows where the satellite is in the earth's shadow,  

DLR